COSMOS 2251 DEB

Satellite information

Favourite Embed

Satellite Type and Status

DEBRISIN ORBIT

Key statistics

Satellite COSMOS 2251 DEB at a glance.

Uptime

11769

Days in orbit

Revolutions

≈ 14.4

Per day

Orbit

LEO

Low Earth Orbit

Inclination

74.0

Latest

Satellite identification and parameters

Extended collection of information and parameters for COSMOS 2251 DEB.

Object identification

Identified? True

Debris? True

Object name: COSMOS 2251 DEB

International designator: 1993-036VU

Object number (NORAD): 34582

Object ID (CCSDS): 34582

Country: COMMONWEALTH OF INDEPENDENT STATES (CIS)

Current information (Y/N): Y

RCS size: SMALL

Orbital parameters

Period: 99.816 minutes

Inclination: 74.0177 deg

SMA: 7127.879 km

Apoapsis: 785.52 km

Periapsis: 713.967 km

RAAN: 99.6244 deg

Eccentricy: 0.00501926

Argument of periapsis: 235.6131 deg

Mean anomaly: 124.0274 deg

Mean motion: 14.42654475 rev/day

Mean motion (dot): 0.00002632 rev/day2

B* drag term: 0.00078765522 1/REarth

Two-line elements (TLE)

Creation date: Sept. 3, 2025, 10:15 a.m.

Reference frame: TEME

Reference center: EARTH

Epoch: Sept. 2, 2025, 11:57 p.m. UTC

TLE line 0: 0 COSMOS 2251 DEB

TLE line 1: 1 34582U 93036VU 25245.99826101 .00002632 00000-0 78766-3 0 9997

TLE line 2: 2 34582 74.0177 99.6244 0050193 235.6131 124.0274 14.42654475864946

Live tracking on map

Real-time ground track for satellite COSMOS 2251 DEB.

In-orbit conjunctions

A list of the most updated potential collisions computed for object COSMOS 2251 DEB.

Target Orbit TCA Probability of collision Miss distance Type
COSMOS 252 DEB * LEO 2025-05-31 08:57:39 0.0001464233 158.0 (m) DEBRIS
NOAA 16 DEB SSO 2025-04-16 07:37:31 0.000311235 165.0 (m) DEBRIS
FENGYUN 1C DEB SSO 2025-03-01 13:20:26 0.000107095 65.0 (m) DEBRIS

Associated space launch

Military communications satellite. Destroyed in a collision with Iridium 33.

COSMOS 2251 DEB was lifted into orbit during the mission ‘Kosmos-3M | Strela-2M 51’, on board a Kosmos-3M space rocket.

The launch took place on June 16, 1993, 4:17 a.m. from 132/1 (132L).

For more information about the launch, click the button.

Launch to space Kosmos-3M | Strela-2M 51
Kosmos-3M | Strela-2M 51

Agency: N/A

Status: Launch Successful

Launch date: June 16, 1993, 4:17 a.m. UTC

Rocket: Kosmos-3M

Launch pad: 132/1 (132L)

Location: Plesetsk Cosmodrome, Russian Federation

...

Latest news about this satellite

There are no fresh news available about this satellite. Check back as we update our databases every day.


Newsletter sign-up

Weekly statistics, charts and insights to help you stay on top of the space industry.